Regional Weather Roundup
Issued by NWS

Home | Current Version | Previous Version | Text Only | Print | Product List | Glossary On
Versions: 1 2 3 4 5 6 7 8 9 10 11 12 13 14 15 16 17 18 19 20 21 22 23 24 25 26 27 28 29 30 31 32 33 34 35 36 37 38 39 40 41 42 43 44 45 46 47 48 49 50
000
ASUS46 KLOX 302313
RWRCA

SOUTHERN CALIFORNIA WEATHER ROUNDUP
NATIONAL WEATHER SERVICE OXNARD CALIFORNIA
400 PM PDT SUN AUG 30 2015

NOTE: "FAIR" INDICATES FEW OR NO CLOUDS BELOW 12,000 FEET WITH NO
SIGNIFICANT WEATHER AND/OR OBSTRUCTIONS TO VISIBILITY.

  -  STATIONS PRECEEDED BY AN ASTERISK (*) ARE NOT NWS OR FAA
     STATIONS AND ARE NOT SUBJECT TO NWS AND FAA QUALITY CONTROL.

CAZ041-042-087-310000-
LA AND ORANGE COUNTY COASTAL AREAS


CITY           SKY/WX    TMP DP  RH WIND       PRES   REMARKS
L.A. DOWNTOWN  SUNNY     83  64  52 W5        29.84F
L.A. AIRPORT   MOSUNNY   77  64  64 SW14      29.86F
LONG BEACH     SUNNY     86  66  51 SE10      29.83F

CITY           SKY/WX    TMP DP  RH WIND       PRES   REMARKS
AVALON           N/A     77 N/A N/A MISG        N/A
FULLERTON      SUNNY     86  64  47 S10       29.83F
*GETTY CENTER    N/A     82  64  54 S9          N/A
HAWTHORNE      SUNNY     80  65  59 W13       29.85F
*LEO CARRILLO    N/A     77  61  58 SW14G28     N/A
*LOS ALAMITOS  FAIR      83  67  58 SW13      29.84F
*REDONDO BEACH   N/A     80  68  65 SW3       29.85F
SANTA ANA      MOSUNNY   82  66  58 SW12      29.84F
STA MONICA APT SUNNY     78  62  57 SW9       29.85F
TORRANCE       MOSUNNY   81  66  61 W17       29.85F
*UCLA            N/A     79  63  57 SW7       29.83F

$$

CAZ547-548-048-310000-
LA COUNTY VALLEYS AND INLAND EMPIRE


CITY           SKY/WX    TMP DP  RH WIND       PRES   REMARKS
BURBANK        SUNNY     88  64  44 S12       29.84F
VAN NUYS       SUNNY     89  62  40 SE13      29.83F

CITY           SKY/WX    TMP DP  RH WIND       PRES   REMARKS
CORONA AIRPORT CLEAR     92  62  36 W15G23    29.82F HX  92
*CHATSWORTH      N/A     92  62  36 NW10      29.81S HX  93
CHINO          MOSUNNY   93  60  33 SW15      29.84F HX  93
*CLAREMONT       N/A     91  60  34 SW8         N/A  HX  90
MARCH AFB      MOSUNNY   93  58  30 NW15      29.86F HX  92
*NORTHRIDGE      N/A     90  57  33 E6G14       N/A
ONTARIO        MOSUNNY   92  60  34 W13       29.84F HX  91
*PASADENA        N/A     90  68  48 NE5         N/A  HX  93
POMONA         SUNNY     90  61  37 W10G22    29.88F
RIVERSIDE      MOSUNNY   93  58  30 NW9G17    29.83F HX  92
SAN BERNARDINO NOT AVBL
*SAN GABRIEL     N/A     87  68  53 SW13      29.88F HX  90
*SAN RAFAEL HI   N/A     89  61  38 SE7         N/A
*SAUGUS          N/A     91  55  29 SE14        N/A
*WHITEMAN AP   NOT AVBL
*WHITTIER HILL   N/A     89  67  48 S8          N/A  HX  92
*WOODLAND HILL   N/A     91  59  33 S7          N/A  HX  90

$$

CAZ054-055-310000-
LA AND SAN BERNARDINO COUNTY MOUNTAINS


CITY           SKY/WX    TMP DP  RH WIND       PRES   REMARKS
*ACTON           N/A     93  43  17 SW10G23     N/A
*BIG BEAR AIRP PTCLDY    73  34  23 W10G22    30.21F
*BIG PINES       N/A     74  48  39 S3          N/A
SANDBERG       SUNNY     79  48  33 N17       30.08F

$$

CAZ028-029-059-060-099-310000-
ANTELOPE VALLEY AND SURROUNDING AREAS


CITY           SKY/WX    TMP DP  RH WIND       PRES   REMARKS
LANCASTER      SUNNY     93  53  25 SW18G25   29.90F HX  90
PALMDALE       SUNNY     92  49  22 W20       29.91F
*POPPY PARK      N/A     91  50  24 W18         N/A

CITY           SKY/WX    TMP DP  RH WIND       PRES   REMARKS
29 PALMS       MOSUNNY  100  40  12 SW13      29.87F HX  95
BARSTOW/DAGGET SUNNY    101  38  11 SW17G23   29.80F HX  95
BISHOP         MOSUNNY   92  23   8 VRB5      29.90F HAZE
CHINA LAKE     SUNNY     99  28   8 SW18G32   29.79F HX  92
EDWARDS AFB    MOSUNNY   95  49  20 W16G24    29.86F HX  91
MOJAVE         SUNNY     90  45  20 W17G28    29.92F
NEEDLES        SUNNY    110  42  10 SW16G24   29.70F HX 104
VICTORVILLE    SUNNY     95  41  15 W9G17     29.91F HX  91

$$

CAZ039-040-310000-
VENTURA AND SANTA BARBARA COUNTY COAST


CITY           SKY/WX    TMP DP  RH WIND       PRES   REMARKS
CAMARILLO      SUNNY     82  62  50 W10       29.84F
NWS OXNARD       N/A     78  63  58 CALM      29.85S
OXNARD AIRPORT SUNNY     75  64  68 W14       29.85F
*POINT MUGU    MOSUNNY   76  63  64 W17       29.86F
SBA APT/GOLETA SUNNY     85  62  46 SW7       29.82F
*SANTA BARBARA   N/A     88  63  43 W1        29.90F
*VENTURA         N/A     83  61  47 SW6       29.47S

$$

CAZ044-045-310000-
VENTURA COUNTY VALLEYS


CITY           SKY/WX    TMP DP  RH WIND       PRES   REMARKS
*SIMI VALLEY     N/A     85  62  44 W3        29.79F
*OJAI            N/A     93  64  37 W2        29.75F HX  94
*FILLMORE        N/A     89  63  41 SW5       29.74F HX  90

$$

CAZ053-310000-
VENTURA COUNTY MOUNTAINS


CITY           SKY/WX    TMP DP  RH WIND       PRES   REMARKS
*LOCKWOOD VLY    N/A     81  41  24 MISG        N/A
*ROSE VALLEY     N/A     84  57  39 MISG        N/A

$$

CAZ034-035-036-310000-
CENTRAL COAST AND SANTA YNEZ VALLEY


CITY           SKY/WX    TMP DP  RH WIND       PRES   REMARKS
SAN LUIS OBISP NOT AVBL
SANTA MARIA    SUNNY     74  58  57 W28       29.91F

CITY           SKY/WX    TMP DP  RH WIND       PRES   REMARKS
*CAL POLY SLO    N/A     75  59  57 W12         N/A
*LOMPOC        SUNNY     75  57  53 W16G25      N/A
*PISMO BEACH     N/A     72  61  67 W12       29.88S
*SANTA YNEZ    FAIR      81  52  36 W21       29.89S

$$

CAZ037-038-051-310000-
SAN LUIS OBISPO COUNTY INTERIOR AND CUYAMA VALLEY


CITY           SKY/WX    TMP DP  RH WIND       PRES   REMARKS
*CUYAMA          N/A     81  49  33 N3        29.83F
PASO ROBLES    SUNNY     90  52  27 MISG      29.90

$$

CAZ032-033-061-310000-
SOUTHERN DESERTS


CITY           SKY/WX    TMP DP  RH WIND       PRES   REMARKS
BLYTHE         SUNNY    111  48  12 W16G24    29.67F HX 107
IMPERIAL       SUNNY    111  43  10 SW17G23   29.65F HX 105
PALM SPRINGS   MOSUNNY  107  48  14 NW20G30   29.70F HX 103
THERMAL        SUNNY    109  45  11 VRB5      29.62F HX 104

$$

ELSEWHERE ACROSS THE WESTERN UNITED STATES AND MEXICO


CITY           SKY/WX    TMP DP  RH WIND       PRES   REMARKS
DENVER, CO     MOSUNNY   94  29  10 E8        29.98F
GRAND CANYON,  TSTM      62  57  83 SE14      30.20F
HONOLULU, HI   PTSUNNY   90  72  55 NE14      29.89F HX  96
KAHULUI, MAUI  PTSUNNY   84  79  84 N15       29.89F HX  96
LAKE TAHOE, CA SUNNY     73  34  23 SW9G20    30.16F
LAS VEGAS, NV  PTSUNNY  100  37  11 SW18G24   29.76F HX  95
MAMMOTH LAKES, FAIR      79  21  11 W13G21    30.17F
MEXICO CITY, M CLOUDY    63  50  63 NE9       30.30
PHOENIX, AZ    MOSUNNY  105  56  19 VRB3      29.73F HX 104
PORTLAND, OR   PTSUNNY   73  50  44 W13G20    30.01S
RENO, NV       PTSUNNY   84  26  12 W18       30.02F
SALT LAKE CITY PTSUNNY   87  45  23 N10       29.92F
SAN DIEGO, CA  MOSUNNY   78  65  63 W8        29.89F
SAN FRANCISCO, MOSUNNY   72  59  63 W24G30    30.01F
SAN JOSE, CA   MOSUNNY   77  54  44 NW18      29.99F
SEATTLE, WA    PTSUNNY   67  52  58 SW15      29.97S
TIJUANA, MEX   MOSUNNY   79  61  53 W16       29.91F

$$

STATION/POSITION TIME  TEMP    WIND        PRES    VSBY  WAVE
                       AIR SEA DIR/SP/G                  HT/PER
                 (UTC) (F)     (DEG/KT/KT) (MB)    (MI)  (FT/S)
POINT ARGUELLO B NOT AVBL
WEST SANTA BARBA 2250   65 68  320/ 25/ 29 1011.3F         7/ 6
POINT CONCEPTION NOT AVBL
EAST SANTA BARBA 2200   69 70  270/ 17/ 23 1011.0F
SANTA MONICA BAY 2250   72 74  280/  8/  8 1010.9F         4/ 6



USA.gov is the U.S. government's official web portal to all federal, state and local government web resources and services.